Simultaneous Nadir Overpasses (SNOs) Predictions

Prediction of SNOs between AQUA and GOES-15 Satellite Orbit:

Table of predicted SNOs for the next 14.0 days since TLE Epoch: 3/26/2022
Index Date Time (AQUA) AQUA Lat,Lon GOES-15 Lat,Lon Distance(km) Time Diff (sec)
1 03/26/2022 10:23:55 0.81,-131.56 0.10,-128.28 373.38 80
2 03/28/2022 10:11:36 0.16,-128.57 0.11,-128.32 28.11 80
3 03/30/2022 09:59:17 -0.50,-125.58 0.11,-128.36 317.26 80
4 03/30/2022 22:20:38 -0.62,-130.76 -0.11,-128.39 269.10 80
5 04/01/2022 22:08:20 0.06,-127.77 -0.11,-128.43 76.37 80
6 04/03/2022 21:56:00 0.70,-124.77 -0.11,-128.47 421.40 80
7 04/04/2022 10:17:12 0.40,-129.91 0.11,-128.47 164.00 80
8 04/06/2022 10:04:52 -0.25,-126.91 0.11,-128.50 180.44 80
9 04/06/2022 22:26:14 -0.85,-132.09 -0.11,-128.51 406.68 80
10 04/08/2022 22:13:53 -0.24,-129.09 -0.12,-128.54 62.76 80
